Regional Weather Roundup
Issued by NWS

Home | Current Version | Previous Version | Text Only | Print | Product List | Glossary Off
Versions: 1 2 3 4 5 6 7 8 9 10 11 12 13 14 15 16 17 18 19 20 21 22 23 24 25 26 27 28 29 30 31 32 33 34 35 36 37 38 39 40 41 42 43 44 45 46 47 48 49 50

333
ASUS45 KSLC 310410
RWRUT

UTAH REGIONAL WEATHER ROUNDUP
NATIONAL WEATHER SERVICE SALT LAKE CITY UT
1000 PM MDT SAT JUL 30 2016

UTZ001>011-023>025-310500-

NORTHERN UTAH

CITY           SKY/WX    TMP DP  RH WIND       PRES   REMARKS
BRIGHAM CITY     N/A     83  40  21 SE6       29.93S
HILL AFB       PTCLDY    80  47  30 N7        29.98R
LOGAN          MOCLDY    81  47  30 SE7       29.93S
OGDEN          PTCLDY    80  47  31 NE5       29.95R
PROVO AIRPORT  CLOUDY    77  52  41 SW3       29.98R
SALT LAKE CITY MOCLDY    87  48  25 N9        29.94R
VERNAL         PTCLDY    79  41  25 E3        29.99R
WENDOVER       MOCLDY    82  46  28 S9        29.93F
HEBER CITY     CLOUDY    77  45  31 SE13G28   30.05R
WEST JORDAN    MOCLDY    84  50  30 S7        30.00R

$$

UTZ012>022-026-027-310500-

SOUTHERN/CENTRAL UTAH

CITY           SKY/WX    TMP DP  RH WIND       PRES   REMARKS
BLANDING       CLOUDY    79  44  29 NW10G45   30.17R
BRYCE CANYON   LGT RAIN  57  50  77 W18       30.34R
CEDAR CITY     CLOUDY    64  58  80 CALM      30.15F
DELTA          CLOUDY    79  45  29 SW23G31   30.04R
MILFORD        CLOUDY    72  54  53 SW15      30.09R
MOAB/CYNLANDS  MOCLDY    91  43  18 W16       29.90R
PRICE          CLOUDY    75  44  33 NW17G26   30.13R
ST GEORGE      CLOUDY    73  61  64 E20       29.97R THUNDER

$$

REGIONAL REPORTS     COLORADO/ARIZONA

CITY           SKY/WX    TMP DP  RH WIND       PRES   REMARKS
CRAIG, CO      CLOUDY    67  41  38 SW6       30.10R
GRAND JUNCTION CLOUDY    79  36  21 SE3       29.94R
RIFLE          CLOUDY    79  42  26 E5        30.03R
MONTROSE       CLEAR     76  41  28 SE10      30.07R
CORTEZ         PTCLDY    80  44  27 SE20G29   30.09R
PAGE, AZ       CLOUDY    83  54  36 W12G20    29.99R
GRAND CANYON   MOCLDY    71  50  47 VRB5      30.21R
KINGMAN        PTCLDY    83  54  36 SW12      29.96R
FLAGSTAFF      LGT RAIN  57  57 100 NE7       30.29R

$$

REGIONAL REPORTS    NEVADA/IDAHO/WYOMING

CITY           SKY/WX    TMP DP  RH WIND       PRES   REMARKS
LAS VEGAS, NV  PTCLDY    99  54  22 S6        29.72R HX  97
ELY            PTCLDY    65  47  52 S9        30.11R
ELKO           MOCLDY    79  44  28 NW6       29.96R
POCATELLO, ID  PTCLDY    82  40  22 SW10      29.88R
BURLEY         MOCLDY    78  49  35 S17       29.86R
EVANSTON, WY   CLOUDY    70  42  36 S6        30.15S
ROCK SPRINGS   CLOUDY    68  43  40 SW9       30.12R
KEMMERER         N/A    N/A N/A N/A SW6       30.17R

$$




USA.gov is the U.S. government's official web portal to all federal, state and local government web resources and services.